Voltar ao catálogo

STARLINK-36362

AtivoComunicaçõesVLEO
NORAD 67424·PAYLOAD·🇺🇸 United States

Lançado Jan 12, 2026 de Cape Canaveral Space Force Station

Loading…

Próximas Passagens (próximas 24 horas)

TLE

AtualizadoSource: CelesTrak SupGP

Época: Sep 14, 2026, 23:23 UTC

1 67424C 26005W   26257.97479167  .00027084  00000+0  98086-3 0  2579
2 67424  43.0031 249.0356 0001312 267.3332 134.1353 15.27569883    13

Acompanhe STARLINK-36362 em tempo real com AllMySat

Download on the App Store